Location: Buena Vista Beach
(41.8098°N, 81.1279°W)
Time: 07:02:23
(UTC+00:00)

Cosmos 2219 - Pass Details

Date: 29 October 2020
Orbit: 832 x 862 km, 71.1° (Epoch: 28 November)

Event Time Altitude Azimuth Distance (km) Brightness Sun altitude
Rises 23:10:00 0° 336° (NNW) 3,446 6.6 -9.5°
Reaches altitude 10° 23:12:28 10° 338° (NNW) 2,507 5.8 -10.0°
Maximum altitude 23:18:15 80° 66° (ENE) 878 3.2 -11.0°
Drops below altitude 10° 23:24:00 10° 154° (SSE) 2,489 5.5 -12.1°
Sets 23:26:26 0° 155° (SSE) 3,419 6.2 -12.5°
